Find Starlink 11453

NORAD ID: 62411 Int'l Des: 2024-249 Owner: SPXS Country: US Constellation: starlink operational
別名: STARLINK-11453 [DTC] celestrak
LEOCIRCULAR

現在のビュー

3D地球を読み込み中...

About Starlink 11453

Starlink 11453 (NORAD 62411) is a starlink constellation satellite (v2 mini d2c) launched Dec 23, 2024 by SPXS of US. It operates in LEO, CIRCULAR orbit with a mass of 960.00 kg.

次回通過

Passes for default location (London). Set your location on the main map for personalized predictions.

高度履歴

Loading altitude history...

軌道要素

1 62411U 24249C 26263.52342049 .00129772 00000-0 99751-3 0 9995
2 62411 43.0001 73.1983 0001993 297.2019 62.8645 15.70877878100120
Epoch: Sep 20, 2026 • Age: 14 hours

現在のステータス

高度 360.8 km
遠地点 / 近地点 N/A
速度 7.69 km/s
衛星直下点 -24.87°S, 8.17°E
打ち上げ日 Dec 23, 2024
運用期間 1.7 years
タイプ internet

技術仕様

分類 Payload
質量 960.00 kg
乾燥質量 910.00 kg
長さ 0.30 m
スパン 29.00 m
形状 ? Box + pan
製造者 SPXS
バスタイプ Starlink V2MD
フェーズステータス In Orbit
所有者/国 SPXS/US

Most Searched